Location: Unspecified
(33.9239°N, 118.0544°W)
Time: 06:40:36
(UTC-07:00)

Resurs 1-4 Rocket - Visible Passes

Search period start: 23 August 2017 00:00
Search period end: 02 September 2017 00:00
Orbit: 799 x 815 km, 98.5° (Epoch: 22 August)

Date Brightness Start Highest point End Pass type
(mag) Time Alt. Az. Time Alt. Az. Time Alt. Az.
23 Aug 3.6 02:58:52 10° NNE 03:01:46 33° NNE 03:01:46 33° NNE visible
23 Aug 4.1 04:41:24 10° NW 04:42:50 12° WNW 04:42:50 12° WNW visible
24 Aug 4.1 02:34:34 10° NNE 02:36:48 24° NE 02:36:48 24° NE visible
24 Aug 3.8 04:15:12 10° NNW 04:17:53 19° NW 04:17:53 19° NW visible
25 Aug 4.7 02:10:41 10° NE 02:11:52 15° NE 02:11:52 15° NE visible
25 Aug 3.4 03:49:56 10° N 03:52:56 28° NNW 03:52:56 28° NNW visible
26 Aug 3.4 03:25:03 10° N 03:27:59 33° N 03:27:59 33° N visible
27 Aug 3.7 03:00:26 10° NNE 03:03:01 30° NNE 03:03:01 30° NNE visible
27 Aug 4.2 04:43:13 10° NW 04:44:05 11° NW 04:44:05 11° NW visible
28 Aug 4.3 02:36:07 10° NNE 02:38:03 22° NE 02:38:03 22° NE visible
28 Aug 3.9 04:16:51 10° NNW 04:19:08 18° NW 04:19:08 18° NW visible
29 Aug 4.8 02:12:11 10° NE 02:13:06 14° NE 02:13:06 14° NE visible
29 Aug 3.6 03:51:32 10° N 03:54:10 25° NNW 03:54:10 25° NNW visible
30 Aug 3.6 03:26:37 10° N 03:29:13 29° N 03:29:13 29° N visible
31 Aug 3.9 03:02:00 10° NNE 03:04:15 26° NNE 03:04:15 26° NNE visible
31 Aug 4.3 04:45:05 10° NW 04:45:20 10° NW 04:45:20 10° NW visible
01 Sep 4.4 02:37:39 10° NNE 02:39:18 20° NE 02:39:18 20° NE visible
01 Sep 4.0 04:18:30 10° NNW 04:20:22 16° NW 04:20:22 16° NW visible
